SCP
1 2 2 2 2 2 2 2 1 1 1 1 1 1 2 2 2 2 2 2 2 2 2 2 1 1 1 1 1 1 1 2 2 1 1 1 1 1 1 1 1 1 1
2 2 2 2 2 2 2 2 2 2 1 1 1 1 2 2 2 2 2 2 2 2 2 2 1 1 1 1 1 1 1 2 2 2 2 1 1 1 1 1 1 1 1
2 2 2 2 2 2 2 2 2 2 2 2 2 2 2 2 2 2 2 2 2 2 2 2 2 1 1 1 1 1 1 2 2 2 2 2 2 1 1 1 1 1 1
2 2 2 2 2 2 2 2 2 2 2 2 2 2 2 2 2 2 1 1 1 1 2 2 1 1 1 1 1 1 1 1 2 2 2 2 2 2 1 1 1 1 1
1 2 2 2 2 2 1 2 2 2 2 2 2 2 2 2 2 1 1 1 1 1 1 1 1 1 1 1 1 1 1 2 2 2 2 2 2 2 2 1 1 1 1
1 1 2 2 1 1 1 1 2 2 2 2 2 2 2 1 1 1 1 1 1 1 1 1 1 1 1 1 1 1 1 2 2 3 3 2 2 2 2 2 1 1 1
1 1 1 1 1 1 1 2 2 2 3 3 2 2 2 1 1 1 1 1 1 1 1 1 1 1 1 1 1 1 1 2 3 3 3 2 2 2 2 2 2 1 1
1 1 1 1 1 1 1 2 2 3 3 3 2 2 1 1 1 1 1 1 1 1 1 1 1 1 1 1 1 1 1 2 2 2 2 2 2 2 2 2 2 2 1
1 1 1 1 1 1 1 2 2 2 3 3 2 2 1 1 1 1 1 1 1 1 1 1 1 1 1 1 1 1 1 1 1 1 2 2 2 2 2 2 2 2 2
1 1 1 1 1 1 1 1 2 2 2 3 2 2 2 2 2 2 1 1 1 1 1 1 1 1 1 1 1 1 1 1 1 1 1 1 1 1 2 2 2 1 1
1 1 1 1 1 1 1 1 2 2 2 3 3 2 2 3 2 2 2 2 1 1 1 1 2 2 2 1 1 1 1 0 0 1 1 1 1 1 1 2 1 1 1
1 1 1 2 2 2 2 2 2 2 2 3 3 3 2 3 3 2 2 2 2 2 2 2 2 2 2 2 1 1 0 0 0 0 1 1 1 1 1 1 1 1 1
1 1 2 2 2 2 2 3 3 3 3 3 3 3 2 3 3 3 3 3 3 2 2 2 2 2 2 2 1 1 0 0 0 0 0 1 1 1 1 1 1 1 1
1 1 2 2 2 2 3 3 3 3 3 3 3 3 3 3 4 4 4 4 4 3 3 3 3 2 2 1 1 1 1 0 0 0 0 1 1 1 2 1 1 1 1
2 2 3 3 3 3 3 2 2 3 3 3 3 3 4 4 4 5 5 5 4 3 2 3 3 2 2 1 1 1 1 1 0 0 0 0 1 1 1 1 1 1 1
3 3 3 4 4 4 3 2 2 2 2 3 3 4 4 5 5 5 6 5 4 3 3 3 2 2 2 2 2 2 1 1 0 0 0 0 0 0 1 1 1 1 1
3 4 4 5 5 5 4 3 2 2 2 3 3 4 4 5 5 6 6 6 5 4 3 2 2 2 2 2 2 2 2 1 1 0 0 0 0 0 0 1 1 1 0
4 4 4 5 6 6 5 4 3 2 2 3 3 4 4 5 5 6 7 8 7 5 3 2 2 2 2 2 2 2 2 1 1 1 0 0 0 0 0 0 0 0 0
4 4 4 5 6 6 5 4 3 3 3 3 4 4 4 5 5 6 8 9 9 6 3 2 2 2 2 2 2 2 2 1 1 1 0 0 0 0 0 0 0 0 0
3 3 3 4 5 5 5 4 4 4 4 4 4 4 4 4 5 6 7 8 8 6 3 2 2 2 2 2 2 2 2 1 1 1 1 1 0 0 0 0 0 0 0
3 3 4 4 5 5 4 3 3 4 5 5 5 5 4 4 4 4 5 6 6 5 4 3 3 2 2 2 2 2 2 2 2 1 1 1 1 1 1 1 0 0 0
3 4 5 5 5 4 3 2 2 4 5 7 7 6 4 4 3 3 3 3 3 4 4 4 3 3 3 3 2 2 2 3 3 2 2 2 2 2 2 1 1 0 0
4 5 5 5 4 3 1 1 1 3 5 6 7 6 5 4 3 2 2 2 2 2 2 3 3 3 4 4 3 2 2 3 3 3 2 1 2 2 2 1 1 0 0
4 5 5 5 3 2 1 0 1 2 3 4 5 5 4 3 3 2 2 2 2 2 2 2 2 2 3 4 5 4 3 3 3 3 2 2 2 2 1 1 1 0 0
4 4 5 4 3 1 1 0 0 1 2 3 4 4 3 3 2 2 3 3 3 3 2 1 1 1 2 4 4 4 3 2 2 2 2 2 2 2 1 1 1 0 0
4 4 4 3 2 1 1 0 0 1 2 2 3 3 3 3 2 2 2 3 4 4 3 2 1 1 2 2 3 3 3 2 2 2 3 3 2 2 1 1 1 1 1
Wind_Speed
3 3 2 2 2 3 3 2 2 2 2 1 1 1 0 1 1 0 3 6 5 5 5 6 6 6 6 6 7 7 7 8 7 6 6 6 6 6 7 7 7 7 7
2 2 2 2 2 2 2 2 2 2 1 1 1 1 0 0 0 1 1 5 6 5 4 5 5 6 6 6 6 6 6 7 7 6 7 6 6 6 6 7 7 7 7
2 2 2 2 2 3 3 2 2 2 2 2 1 1 1 0 0 0 1 1 4 6 5 5 4 5 5 5 5 6 6 6 6 7 7 7 7 6 6 7 7 7 7
2 1 1 2 2 2 2 2 2 2 1 1 0 0 0 1 1 1 1 1 1 2 6 7 5 4 4 5 5 5 6 6 6 6 7 7 7 7 7 8 8 7 7
2 2 1 2 2 2 2 2 2 1 1 1 1 1 1 1 1 1 2 2 2 2 2 6 7 5 5 4 5 5 5 5 5 5 6 6 6 6 6 7 8 8 8
2 2 2 2 2 2 1 1 1 1 1 1 1 1 1 2 2 2 2 2 2 3 3 3 5 5 6 5 5 5 5 5 5 5 6 6 6 6 6 6 7 7 8
2 2 1 3 3 2 2 2 2 2 2 1 1 1 2 2 2 2 2 2 2 2 2 2 2 2 4 8 6 5 5 5 5 5 6 6 6 6 7 7 7 7 8
2 3 2 2 2 3 3 3 2 2 1 2 2 2 1 2 2 2 2 2 2 2 2 2 2 2 2 2 4 6 5 4 4 4 4 5 6 6 6 7 7 7 7
2 1 2 2 2 2 2 3 3 4 2 2 2 2 2 0 0 2 2 2 2 1 2 2 3 2 3 2 2 5 5 4 4 4 4 5 5 5 6 7 7 7 7
3 3 3 2 2 2 2 4 3 3 4 3 2 2 2 2 2 1 2 3 3 3 3 3 2 3 3 2 2 2 4 4 3 3 4 4 5 5 5 6 7 7 7
3 3 3 3 3 2 2 2 2 4 3 3 2 2 2 2 4 3 2 2 2 2 2 3 2 2 3 3 3 3 4 3 3 3 4 4 5 5 5 6 6 6 6
2 2 3 3 3 2 3 3 3 4 4 4 3 3 3 3 2 3 4 3 2 1 2 2 3 2 2 2 2 3 4 4 4 4 4 4 4 4 5 5 6 6 6
2 2 2 3 3 3 3 3 4 4 4 4 5 4 3 3 3 3 4 3 3 2 2 3 2 2 2 2 2 4 5 5 4 4 4 3 3 3 3 4 5 5 5
1 2 3 3 3 3 3 3 4 4 4 4 5 4 4 3 3 3 4 4 4 3 2 2 1 2 1 2 2 4 3 5 4 4 3 3 3 3 3 4 4 3 4
2 2 3 3 3 3 3 3 3 3 3 4 4 4 4 3 4 3 3 4 4 4 3 2 2 1 1 1 2 3 2 4 5 4 4 4 3 3 3 4 4 3 4
2 2 2 2 2 2 2 3 3 2 3 3 3 3 4 3 3 3 3 3 4 4 4 2 1 1 0 1 2 2 2 5 5 5 5 4 4 3 3 4 4 4 4
3 3 3 3 3 2 2 2 2 2 2 2 2 2 3 3 3 3 3 3 3 3 4 3 2 1 1 2 1 2 2 3 3 6 6 5 5 4 4 4 4 4 4
3 2 3 3 2 2 2 2 2 2 2 2 2 2 3 2 3 3 3 3 3 3 4 3 2 2 2 3 2 3 2 2 2 5 7 6 6 5 4 4 4 4 4
3 3 3 3 3 2 2 2 2 2 2 2 2 2 3 3 3 2 3 3 2 2 2 3 3 1 2 2 2 3 3 2 3 4 7 8 7 7 6 5 5 4 5
2 3 3 3 3 3 2 2 2 2 2 2 2 2 2 2 2 3 2 2 2 2 2 3 2 2 1 1 2 3 3 2 3 3 3 4 7 9 8 7 6 5 5
3 3 3 3 3 3 2 3 3 2 2 2 1 2 1 1 2 3 3 2 2 2 2 2 2 2 2 1 2 3 3 3 3 3 3 4 4 5 7 8 8 7 6
2 3 3 3 3 2 2 0 3 2 2 2 2 2 3 2 1 1 1 2 2 3 3 3 3 3 3 3 3 3 3 4 3 2 3 4 4 4 4 4 6 8 8
3 3 3 3 3 1 2 2 3 4 3 3 3 3 3 1 2 2 2 4 3 3 3 4 4 4 4 3 3 5 4 5 5 3 4 5 4 5 4 3 8 9 8
3 3 3 2 2 2 3 3 3 5 3 3 3 3 3 2 2 3 3 3 3 3 3 4 4 5 5 4 4 5 5 5 5 4 3 5 4 4 5 4 9 9 9
3 3 3 3 3 2 3 3 4 4 3 3 3 3 3 2 0 2 4 4 4 4 4 4 5 6 6 5 5 4 4 4 5 4 3 5 5 5 5 5 5 10 10
3 3 2 3 3 2 2 3 4 4 4 4 3 3 2 2 1 2 5 5 5 5 5 4 6 7 7 6 7 6 5 5 5 5 2 4 5 4 5 4 3 5 7
Wind_Direction
123 126 129 136 132 125 141 146 139 133 143 159 166 146 101 92 85 135 115 124 142 161 178 188 191 191 192 193 194 194 194 191 189 189 194 201 207 214 210 207 202 199 202
113 122 139 136 127 130 126 141 139 146 149 123 115 121 160 170 165 193 137 140 150 163 179 190 192 192 193 190 190 193 194 194 193 193 199 205 209 213 208 206 206 207 209
116 134 135 143 128 131 141 150 143 155 166 157 145 153 206 261 269 139 208 166 161 169 177 184 190 195 195 195 193 192 190 193 197 201 204 209 210 212 207 208 210 212 215
136 140 129 124 131 148 148 150 162 165 155 156 148 232 209 180 235 208 206 195 212 182 172 170 176 184 188 196 198 194 190 193 201 207 209 210 211 212 214 213 212 210 211
160 165 135 116 157 154 150 164 135 173 169 171 201 201 229 223 234 222 216 210 214 217 193 161 175 188 197 208 212 208 199 197 204 209 210 209 210 207 212 214 214 215 217
165 176 162 157 171 150 149 139 147 170 208 219 238 180 225 232 227 224 225 196 204 219 215 194 185 184 196 214 222 222 218 213 216 216 212 211 212 210 209 210 216 215 217
161 191 182 168 185 169 181 187 187 184 200 204 217 208 199 206 212 212 223 228 200 203 200 204 220 210 187 197 210 218 220 223 225 225 223 221 218 218 212 211 217 218 219
178 176 173 188 183 180 187 193 205 223 204 206 250 249 219 184 197 192 205 209 217 216 199 195 211 218 237 192 163 190 205 216 225 230 232 233 230 224 220 221 223 221 219
175 163 174 190 195 210 195 206 210 219 226 219 239 272 278 297 352 167 208 205 211 240 234 215 212 215 229 220 185 172 186 201 223 236 239 238 235 231 231 229 227 221 220
185 178 186 187 209 213 211 224 205 227 231 229 206 234 276 318 278 241 203 186 200 222 243 250 222 208 218 210 184 153 168 184 213 241 253 248 242 240 237 228 225 220 220
191 188 188 194 207 215 216 238 225 237 236 244 230 207 213 229 241 256 265 246 214 217 220 233 238 230 223 217 213 164 166 188 210 237 253 257 253 246 234 225 227 224 223
191 197 199 205 213 218 213 224 232 229 249 257 258 238 229 234 243 244 251 256 251 249 245 246 239 233 222 210 198 144 176 195 211 232 246 252 255 251 236 228 231 230 230
190 192 216 215 223 227 228 232 233 248 242 246 247 250 251 254 259 259 261 265 263 251 237 236 229 235 233 208 170 167 192 195 207 221 233 238 239 243 240 232 234 231 233
223 203 219 225 232 237 241 236 243 245 246 251 249 248 253 253 254 257 264 268 269 261 240 243 230 210 232 230 127 196 194 180 198 213 218 223 223 231 232 222 221 223 230
230 215 223 230 238 241 249 249 246 251 247 248 249 239 249 249 251 253 253 253 263 273 274 247 240 194 216 208 144 229 230 167 191 198 204 211 209 212 217 204 204 216 229
239 232 226 236 240 237 236 246 248 244 252 251 257 263 264 265 264 256 255 257 259 269 280 283 260 249 249 240 162 250 246 169 185 192 201 206 207 202 201 206 210 216 225
218 221 234 235 234 235 231 230 255 243 249 259 266 261 269 286 280 275 268 262 259 255 257 268 259 214 230 258 212 247 237 230 176 176 188 194 200 204 207 208 211 217 222
219 211 230 231 232 224 223 224 243 249 255 267 280 284 284 278 276 284 280 268 259 249 247 258 258 231 239 246 247 256 259 245 235 159 178 187 193 203 206 206 209 216 222
212 212 221 226 235 233 224 233 238 243 251 265 275 279 286 294 288 288 278 277 268 262 258 253 256 262 254 253 247 257 262 262 252 179 179 188 193 198 201 203 207 215 221
216 215 219 226 230 224 223 233 236 236 254 268 275 283 290 297 295 290 271 274 279 276 256 260 260 252 247 240 253 252 251 245 256 239 217 206 189 195 199 201 208 214 220
209 210 213 221 230 222 220 230 236 217 224 252 269 281 288 348 353 322 313 298 277 268 261 255 250 250 250 242 254 262 270 266 254 248 243 230 206 211 202 205 211 215 215
214 213 212 221 230 236 106 318 276 247 230 239 258 265 245 198 187 209 295 300 295 278 288 280 266 264 263 258 263 267 270 273 269 239 262 260 239 237 226 217 187 192 205
200 214 219 222 228 171 132 200 252 265 257 257 261 268 274 286 246 247 219 214 221 223 252 275 284 282 275 267 264 265 269 276 281 276 262 266 251 252 247 207 166 181 196
202 211 220 220 225 184 161 207 242 246 259 263 263 260 264 283 302 296 277 263 258 242 234 250 274 281 283 281 264 265 273 268 261 248 246 268 262 256 255 227 170 184 194
210 214 213 217 226 213 173 203 241 243 237 248 256 258 257 251 345 293 267 268 273 268 225 222 247 261 268 254 254 261 258 260 269 257 227 258 268 269 260 241 188 189 199
216 223 213 223 228 237 170 193 237 251 246 245 239 233 209 236 242 248 258 267 271 278 282 256 237 238 243 231 220 239 254 257 267 265 230 248 262 266 260 241 222 202 209